User: anonymous   Login
Location: Unspecified
(0.0000°N, 0.0000°E)
Time: 20:01:59
(UTC+00:00)
Language:

TISAT 1 - Orbit

View from above orbital plane
View from above orbital plane
View from above satellite
View from above satellite

Ground track
Ground track

The orbit data is extracted from the following two-line orbital elements,

1 36799U 10035E   17144.84714199 +.00000404 +00000-0 +47548-4 0  9993
2 36799 098.0585 267.1057 0013407 048.9417 311.2956 14.90369045372108
Epoch (UTC): 24 May 2017 20:19:53
Eccentricity: 0.0013407
inclination: 98.0585°
perigee height: 587 km
apogee height: 606 km
right ascension of ascending node: 267.1057°
argument of perigee: 48.9417°
revolutions per day: 14.90369045
mean anomaly at epoch: 311.2956°
orbit number at epoch: 37210

The dashed part of the orbit path shows where the satellite is in the earth's shadow,  

DLR